Location: Crescent
(42.8242°N, 73.7329°W)
Time: 02:34:16
(UTC+00:00)

Explorer 7 - Pass Details

Date: 18 February 2026
Orbit: 430 x 541 km, 50.2° (Epoch: 13 March)

Event Time Altitude Azimuth Distance (km) Brightness Sun altitude
Rises 19:30:32 0° 229° (SW) 2,404 11.4 26.8°
Reaches altitude 10° 19:32:38 10° 226° (SW) 1,550 10.9 26.6°
Maximum altitude 19:36:04 61° 145° (SE) 513 7.2 26.2°
Drops below altitude 10° 19:39:39 10° 65° (ENE) 1,611 8.8 25.7°
Sets 19:41:52 0° 62° (ENE) 2,510 9.7 25.5°
